Weather History for Granbury, TX

Change the Weather History Date:

Wednesday, October 17, 2012

  Actual Average (KSEP) Record (KSEP)
Temperature  
Mean Temperature 74 °F -  
Max Temperature 87 °F 78 °F 92 °F (1947)
Min Temperature 62 °F 54 °F 34 °F (1952)
Cooling Degree Days 10    
Growing Degree Days 24 (Base 50)    
Moisture  
Dew Point 56 °F    
Average Humidity 56    
Maximum Humidity 88    
Minimum Humidity 24    
Precipitation  
Precipitation 0.00 in - - ()
Sea Level Pressure  
Sea Level Pressure 29.68 in    
Wind  
Wind Speed 10 mph (WSW)    
Max Wind Speed 24 mph    
Max Gust Speed 28 mph    
Visibility 10 miles    
Events      
Averages and records for this station are not official NWS values.
T = Trace of Precipitation, MM = Missing Value Source: NWS Daily Summary

Daily Weather History Graph

Daily Weather History Graph

Search for Another Location

Airport:

Trip Planner

Search our weather history database for the weather conditions in past years. The results will help you decide how hot, cold, wet, or windy it might be!

Date:

Astronomy

Oct. 17, 2012 Rise Set
Actual Time 7:36 AM CDT 6:55 PM CDT
Civil Twilight 7:12 AM CDT 7:20 PM CDT
Nautical Twilight 6:43 AM CDT 7:48 PM CDT
Astronomical Twilight 6:15 AM CDT 8:17 PM CDT
Moon 10:02 AM CDT (10/17) 8:43 PM CDT (10/17)
Length of Visible Light 12h 08m
Length of Day
11h 18m
Waxing Crescent, 7% of the Moon is Illuminated
Oct 17
Waxing Crescent
Oct 21
First Quarter
Oct 29
Full
Nov 6
Last Quarter
Nov 13
New

Hourly Weather History & Observations

Time (CDT) Temp. Heat Index Dew Point Humidity Pressure Visibility Wind Dir Wind Speed Gust Speed Precip Events Conditions
12:15 AM 69.8 °F - 64.4 °F 83% 29.70 in 10.0 mi SSE 9.2 mph - N/A   Scattered Clouds
12:35 AM 69.8 °F - 64.4 °F 83% 29.70 in 10.0 mi SSE 9.2 mph 16.1 mph N/A   Scattered Clouds
12:55 AM 69.8 °F - 64.4 °F 83% 29.69 in 10.0 mi SSE 8.1 mph - N/A   Mostly Cloudy
1:15 AM 69.8 °F - 64.4 °F 83% 29.69 in 10.0 mi South 9.2 mph - N/A   Overcast
1:35 AM 71.6 °F - 64.4 °F 78% 29.69 in 10.0 mi SSE 9.2 mph - N/A   Overcast
1:55 AM 71.6 °F - 64.4 °F 78% 29.68 in 10.0 mi SSE 15.0 mph 20.7 mph N/A   Overcast
2:15 AM 71.6 °F - 64.4 °F 78% 29.68 in 10.0 mi South 9.2 mph - N/A   Overcast
2:35 AM 71.6 °F - 64.4 °F 78% 29.68 in 10.0 mi SSE 10.4 mph 17.3 mph N/A   Overcast
2:55 AM 71.6 °F - 64.4 °F 78% 29.68 in 10.0 mi SSE 9.2 mph - N/A   Overcast
3:15 AM 71.6 °F - 64.4 °F 78% 29.67 in 10.0 mi SSE 11.5 mph 17.3 mph N/A   Overcast
3:35 AM 71.6 °F - 64.4 °F 78% 29.67 in 10.0 mi SSE 9.2 mph - N/A   Overcast
3:55 AM 69.8 °F - 64.4 °F 83% 29.66 in 10.0 mi SSE 6.9 mph - N/A   Mostly Cloudy
4:15 AM 69.8 °F - 64.4 °F 83% 29.65 in 10.0 mi SSE 9.2 mph - N/A   Scattered Clouds
5:15 AM 69.8 °F - 64.4 °F 83% 29.64 in 10.0 mi South 10.4 mph - N/A   Clear
5:35 AM 69.8 °F - 64.4 °F 83% 29.64 in 10.0 mi South 10.4 mph - N/A   Clear
5:55 AM 69.8 °F - 64.4 °F 83% 29.64 in 10.0 mi South 8.1 mph - N/A   Clear
6:15 AM 68.0 °F - 64.4 °F 88% 29.64 in 10.0 mi SSE 5.8 mph - N/A   Clear
6:35 AM 68.0 °F - 64.4 °F 88% 29.64 in 10.0 mi South 8.1 mph - N/A   Clear
6:55 AM 68.0 °F - 64.4 °F 88% 29.64 in 10.0 mi South 6.9 mph - N/A   Clear
7:15 AM 68.0 °F - 64.4 °F 88% 29.64 in 10.0 mi SSE 6.9 mph - N/A   Clear
7:35 AM 68.0 °F - 64.4 °F 88% 29.63 in 10.0 mi SSE 9.2 mph - N/A   Clear
7:55 AM 68.0 °F - 64.4 °F 88% 29.62 in 10.0 mi South 12.7 mph - N/A   Clear
8:15 AM 69.8 °F - 64.4 °F 83% 29.62 in 10.0 mi South 11.5 mph 18.4 mph N/A   Clear
8:35 AM 69.8 °F - 64.4 °F 83% 29.62 in 10.0 mi South 13.8 mph 20.7 mph N/A   Clear
8:55 AM 71.6 °F - 64.4 °F 78% 29.61 in 10.0 mi South 17.3 mph 24.2 mph N/A   Clear
9:15 AM 73.4 °F - 64.4 °F 73% 29.63 in 10.0 mi South 11.5 mph 23.0 mph N/A   Clear
9:35 AM 73.4 °F - 64.4 °F 73% 29.62 in 10.0 mi South 12.7 mph 19.6 mph N/A   Clear
9:55 AM 77.0 °F - 64.4 °F 65% 29.64 in 10.0 mi SW 13.8 mph 25.3 mph N/A   Clear
10:15 AM 78.8 °F - 64.4 °F 61% 29.64 in 10.0 mi SW 17.3 mph - N/A   Clear
10:35 AM 78.8 °F - 64.4 °F 61% 29.64 in 10.0 mi SW 13.8 mph 20.7 mph N/A   Clear
10:55 AM 80.6 °F 81.8 °F 62.6 °F 54% 29.64 in 10.0 mi SW 16.1 mph 25.3 mph N/A   Clear
11:35 AM 82.4 °F 82.0 °F 57.2 °F 42% 29.64 in 10.0 mi West 18.4 mph 25.3 mph N/A   Clear
11:55 AM 82.4 °F 82.0 °F 57.2 °F 42% 29.64 in 10.0 mi WSW 12.7 mph 26.5 mph N/A   Clear
12:15 PM 82.4 °F 82.5 °F 59.0 °F 45% 29.64 in 10.0 mi West 12.7 mph 23.0 mph N/A   Clear
12:35 PM 84.2 °F 83.0 °F 55.4 °F 37% 29.64 in 10.0 mi West 13.8 mph 23.0 mph N/A   Clear
12:55 PM 86.0 °F - 51.8 °F 31% 29.64 in 10.0 mi WNW 24.2 mph 27.6 mph N/A   Clear
1:15 PM 86.0 °F - 46.4 °F 25% 29.63 in 10.0 mi West 16.1 mph 21.9 mph N/A   Clear
1:35 PM 86.0 °F - 46.4 °F 25% 29.64 in 10.0 mi WNW 17.3 mph 23.0 mph N/A   Clear
1:55 PM 86.0 °F - 46.4 °F 25% 29.62 in 10.0 mi NW 11.5 mph - N/A   Clear
2:15 PM 86.0 °F - 46.4 °F 25% 29.63 in 10.0 mi West 11.5 mph - N/A   Clear
2:35 PM 87.8 °F - 46.4 °F 24% 29.63 in 10.0 mi NNW 19.6 mph 25.3 mph N/A   Clear
2:55 PM 87.8 °F - 46.4 °F 24% 29.63 in 10.0 mi NW 12.7 mph 17.3 mph N/A   Clear
3:15 PM 86.0 °F - 46.4 °F 25% 29.63 in 10.0 mi NW 10.4 mph 19.6 mph N/A   Clear
3:35 PM 87.8 °F - 46.4 °F 24% 29.64 in 10.0 mi NNW 16.1 mph 21.9 mph N/A   Clear
3:55 PM 86.0 °F - 46.4 °F 25% 29.65 in 10.0 mi NW 11.5 mph 17.3 mph N/A   Clear
4:15 PM 86.0 °F - 46.4 °F 25% 29.64 in 10.0 mi NNW 11.5 mph 21.9 mph N/A   Clear
4:35 PM 86.0 °F - 46.4 °F 25% 29.65 in 10.0 mi NW 13.8 mph 17.3 mph N/A   Clear
4:55 PM 86.0 °F - 46.4 °F 25% 29.66 in 10.0 mi NNW 15.0 mph - N/A   Clear
5:15 PM 86.0 °F - 46.4 °F 25% 29.67 in 10.0 mi NNW 9.2 mph - N/A   Clear
5:35 PM 84.2 °F - 46.4 °F 27% 29.68 in 10.0 mi NNW 12.7 mph - N/A   Clear
5:55 PM 82.4 °F - 48.2 °F 30% 29.69 in 10.0 mi NNW 13.8 mph 17.3 mph N/A   Clear
6:15 PM 82.4 °F - 46.4 °F 28% 29.70 in 10.0 mi NNW 12.7 mph 18.4 mph N/A   Clear
6:35 PM 80.6 °F - 48.2 °F 32% 29.72 in 10.0 mi NNW 9.2 mph - N/A   Clear
6:55 PM 77.0 °F - 50.0 °F 39% 29.72 in 10.0 mi NNW 4.6 mph - N/A   Clear
7:15 PM 75.2 °F - 50.0 °F 41% 29.73 in 10.0 mi North 4.6 mph - N/A   Clear
7:35 PM 73.4 °F - 50.0 °F 44% 29.74 in 10.0 mi NNW 3.5 mph - N/A   Clear
7:55 PM 71.6 °F - 51.8 °F 50% 29.75 in 10.0 mi North 4.6 mph - N/A   Clear
8:15 PM 71.6 °F - 51.8 °F 50% 29.76 in 10.0 mi North 3.5 mph - N/A   Clear
8:35 PM 71.6 °F - 51.8 °F 50% 29.77 in 10.0 mi Calm Calm - N/A   Clear
8:55 PM 69.8 °F - 50.0 °F 49% 29.78 in 10.0 mi NNW 3.5 mph - N/A   Clear
9:35 PM 68.0 °F - 46.4 °F 46% 29.80 in 10.0 mi Calm Calm - N/A   Clear
9:55 PM 66.2 °F - 46.4 °F 49% 29.80 in 10.0 mi WNW 4.6 mph - N/A   Clear
10:15 PM 64.4 °F - 46.4 °F 52% 29.81 in 10.0 mi NW 3.5 mph - N/A   Clear
10:55 PM 62.6 °F - 46.4 °F 55% 29.81 in 10.0 mi Calm Calm - N/A   Clear
11:15 PM 64.4 °F - 44.6 °F 49% 29.81 in 10.0 mi Calm Calm - N/A   Clear
11:35 PM 64.4 °F - 44.6 °F 49% 29.81 in 10.0 mi Calm Calm - N/A   Clear
11:55 PM 64.4 °F - 44.6 °F 49% 29.81 in 10.0 mi Calm Calm - N/A   Clear